Location: Caltech
(34.1382°N, 118.1253°W)
Time: 14:52:11
(UTC-08:00)

Daily predictions for brighter satellites

Satellite Brightness Start Highest point End
(mag) Time Altitude Azimuth Time Altitude Azimuth Time Altitude Azimuth
Ariane Rocket 3.1 17:05:02 10° SSE 17:10:02 60° ENE 17:15:02 10° N
IDEFIX/ARIANE 42P 4.4 17:08:51 10° SSW 17:13:39 37° W 17:18:29 10° NNW
Cosmos 1606 4.1 17:13:03 10° SE 17:15:44 19° E 17:18:24 10° NE
CORIOLIS 4.3 17:10:31 10° SSE 17:15:46 53° ENE 17:21:03 10° N
Meteor 1-28 Rocket 3.2 17:12:22 10° NNE 17:16:02 57° E 17:19:40 10° S
Cosmos 1862 4.3 17:12:24 10° NNW 17:16:20 53° W 17:20:15 10° S
IRAS Rocket 4.5 17:11:55 10° SSE 17:17:29 80° WSW 17:23:02 10° NNW
AQUARIUS 4.1 17:16:42 10° SSE 17:21:08 67° ENE 17:25:36 10° N
EO 1 Del DPAF 4.2 17:19:26 10° NE 17:22:46 28° E 17:26:06 10° SSE
Cosmos 2208 Rocket 4.5 17:17:42 10° NNW 17:22:53 68° WSW 17:28:07 10° S
BREEZE-M R/B 4.4 17:21:28 10° N 17:23:07 14° NE 17:24:58 11° ENE
Cosmos 1486 Rocket 4.2 17:18:14 10° S 17:23:16 53° ESE 17:28:21 10° NNE
Cosmos 841 Rocket 4.3 17:19:11 10° N 17:23:43 28° ENE 17:28:12 10° SE
Cosmos 1782 3.9 17:20:48 10° SE 17:24:04 24° E 17:27:21 10° NE
MTI 4.3 17:22:23 10° NNE 17:25:25 38° E 17:28:26 10° S
Landsat 4 3.8 17:22:33 10° NNE 17:26:18 57° ESE 17:30:01 10° S
Cosmos 2242 Rocket 4.4 17:22:11 10° SSW 17:26:40 56° W 17:31:09 10° N
SKYMED 2 4.1 17:24:54 10° NNE 17:28:58 38° E 17:32:59 10° SSE
Cosmos 1908 Rocket 4.1 17:25:01 10° NNE 17:28:58 34° E 17:32:53 10° SE
Cosmos 2233 Rocket 4.0 17:24:58 10° S 17:31:14 81° E 17:37:29 10° N
USA 234 3.3 17:25:09 10° NE 17:31:43 77° SE 17:38:14 10° SW
Cosmos 1733 Rocket 3.2 17:27:46 10° N 17:32:13 81° W 17:36:39 10° S
Cosmos 972 Rocket 3.8 17:28:00 10° NNW 17:32:55 83° ENE 17:37:52 10° SSE
SPOT 3 Rocket 4.3 17:30:12 10° SE 17:34:40 30° ENE 17:39:09 10° N
Sich 1 Rocket 4.2 17:32:44 10° NNE 17:36:47 35° E 17:40:51 10° SE
Meteor 1-25 Rocket 4.5 17:31:40 10° N 17:37:20 50° ENE 17:42:55 10° SSE
Cosmos 1862 Rocket 4.4 17:33:44 10° SSW 17:38:02 55° W 17:42:24 10° N
Chunghua 1 4.4 17:36:31 10° W 17:40:14 77° N 17:42:51 18° E
Meteor 1-20 Rocket 4.4 17:36:26 10° N 17:41:48 48° ENE 17:47:02 10° SSE
CSL-04 Rocket 4.5 17:39:08 10° S 17:44:17 54° W 17:49:29 10° NNW
Cosmos 405 Rocket 4.0 17:42:12 10° SE 17:44:59 19° E 17:45:18 19° E
Cosmos 2082 Rocket 3.3 17:40:43 10° N 17:45:04 22° ENE 17:47:57 15° E
GENESIS II 4.2 17:42:03 10° NNW 17:45:54 55° ENE 17:49:42 10° SE
CZ-4C R/B 4.4 17:42:21 10° N 17:46:00 14° NE 17:47:31 13° NE
Cosmos 972 4.3 17:46:41 10° N 17:51:37 60° ENE 17:56:24 10° SSE
MONITOR-E 4.5 17:49:26 10° SSE 17:52:18 41° ENE 17:55:12 10° N
ERS-2 2.0 17:53:33 10° SSE 17:57:13 75° ENE 18:00:53 10° N
METEOR-M 4.0 17:53:15 10° SSE 17:58:34 75° ENE 18:03:53 10° N
CZ-3A R/B 4.0 17:45:06 10° NW 17:58:40 52° NNE 18:03:13 17° ESE
ERBS 2.4 17:55:29 10° NNW 17:58:49 52° NE 18:00:21 28° ESE
OAO 3 Copernicus 4.3 17:53:58 10° W 17:59:05 80° N 18:02:00 26° E
Okean 1-7 3.0 17:56:29 10° S 18:00:46 60° E 18:05:05 10° NNE
Meteor 1-10 Rocket 4.3 17:55:26 10° S 18:00:55 58° E 18:06:32 10° NNE
Cosmos 304 Rocket 3.7 17:59:37 10° NNW 18:04:26 86° WSW 18:09:13 10° SSE
BREEZE M DEB (TANK) 4.4 18:06:48 10° W 18:08:27 16° SW 18:10:03 10° S
Cosmos 1891 Rocket 4.5 18:04:34 10° S 18:10:39 58° E 18:16:38 10° NNE
Thor Agena Rocket 4.0 18:11:18 30° ENE 18:12:49 36° E 18:17:31 10° SSE
Cosmos 1782 Rocket 3.4 18:08:58 10° N 18:13:17 64° E 18:17:36 10° SSE
OAO 3 Rocket 4.2 18:09:27 10° SW 18:13:52 33° SSE 18:15:23 27° ESE
YAOGAN 1 3.4 18:10:34 10° S 18:14:46 52° W 18:19:00 10° NNW
BREEZE-M DEB (TANK) 2.7 18:09:54 10° WNW 18:16:21 71° SW 18:17:59 28° SE
CZ-4 R/B 3.4 18:13:17 10° SSW 18:16:42 29° W 18:20:06 10° NW
COSMO-SKYMED 1 3.3 18:12:48 10° N 18:17:02 54° WNW 18:21:15 10° SSW
Cosmos 2221 Rocket 3.6 18:19:18 10° S 18:23:42 79° W 18:28:08 10° N
Celestis-02/Orion 38 4.5 18:24:31 31° NE 18:27:02 71° ESE 18:32:13 10° SSW
Cosmos 2034 Rocket 3.9 18:23:48 10° S 18:30:08 74° E 18:36:29 10° N
ALOS 2.3 18:27:14 10° S 18:31:54 82° WSW 18:36:35 10° NNW
SL-27 R/B 2.7 18:29:57 10° NNW 18:32:48 57° NW 18:32:48 57° NW
FENGYUN 3A 3.6 18:28:39 10° SSE 18:34:03 86° WSW 18:39:30 10° NNW
Nadezhda 4 Rocket 4.1 18:29:00 10° N 18:34:51 45° E 18:40:39 10° SSE
Meteor 1-11 Rocket 3.9 18:29:25 10° N 18:35:06 49° ENE 18:40:36 10° SSE
Cosmos 2297 4.0 18:33:01 10° SSW 18:38:40 66° WNW 18:42:47 19° N
Cosmos 1633 3.9 18:38:14 10° NNW 18:41:42 40° W 18:45:08 10° SSW
Cosmos 1833 Rocket 2.5 18:39:47 10° NNW 18:45:25 74° ENE 18:46:55 49° SE
Cosmos 2278 Rocket 4.3 18:41:31 10° WSW 18:45:55 23° WNW 18:50:21 10° N
Okean 2 Rocket 3.2 18:45:14 10° N 18:49:46 75° W 18:54:15 10° S
Cosmos 1441 Rocket 3.9 18:46:00 10° SSW 18:49:07 51° SW 18:49:07 51° SW
Cosmos 968 Rocket 3.6 18:51:38 10° SSW 18:56:00 64° S 18:56:00 64° S
Cosmos 540 Rocket 3.8 18:58:46 10° NNW 19:03:53 61° WSW 19:06:26 29° S
Meteor 2-20 4.4 18:59:10 10° N 19:05:14 78° W 19:11:17 10° S
MOS 1-B Rocket 4.3 19:06:05 10° SSE 19:12:55 85° ENE 19:21:04 10° NNW
Cosmos 2082 Rocket 3.1 19:23:57 10° NW 19:29:20 45° WSW 19:29:58 43° SW
CZ-4C R/B 3.8 19:28:37 10° NNW 19:32:45 36° N 19:32:45 36° N
